OneWeb SL0145

operational
NORAD ID: 47260 Int'l Des: 2020-100 Owner: ONEWEB Country: UK Constellation: oneweb
LEOCIRCULARPOLARONEWEB_TYPE

About OneWeb SL0145

Description loading...

Live Position

Loading 3D Globe...

Upcoming Passes

Altitude History

Altitude vs Time

uPlot chart will show altitude changes over time

Two-Line Element Set

1 47260U 20100C 25258.63881122 .00000378 00000-0 10150-2 0 9992
2 47260 87.8903 45.1837 0001394 91.6700 268.4589 13.12442830228714
Epoch: Sep 15, 2025 • Age: 15 hours

Current Status

Altitude 1215.8 km
Velocity 7.25 km/s
Sub-Earth Point 7.64°N, 40.21°W
Launch Date Dec 18, 2020
Age 4.7 years
Type internet

Technical Details

Classification Payload
Mass 148.00 kg
Dry Mass 140.00 kg
Total Mass 148.00 kg
Length 1.30 m
Diameter 1.00 m
Span 5.00 m
Shape Trapezoid+2 pan
Manufacturer ONEWUS
Bus Type ARROW
Phase Status In Orbit
Owner/State ONEWEB/UK

Large Constellations

Loading constellations...